Weather History for Waseca, MN

Change the Weather History Date:

Wednesday, December 5, 2012

  Actual Average Record
Temperature  
Mean Temperature 30 °F -  
Max Temperature 44 °F 30 °F 52 °F (1960)
Min Temperature 15 °F 12 °F -12 °F (1991)
Degree Days  
Heating Degree Days 36    
Moisture  
Dew Point 17 °F    
Average Humidity 54    
Maximum Humidity 80    
Minimum Humidity 36    
Precipitation  
Precipitation 0.00 in - - ()
Sea Level Pressure  
Sea Level Pressure 30.17 in    
Wind  
Wind Speed 10 mph (SE)    
Max Wind Speed 26 mph    
Max Gust Speed 39 mph    
Visibility 10 miles    
Events      
Averages and records for this station are not official NWS values.
T = Trace of Precipitation, MM = Missing Value Source: NWS Daily Summary

Daily Weather History Graph

Daily Weather History Graph

Search for Another Location

Airport:

Trip Planner

Search our weather history database for the weather conditions in past years. The results will help you decide how hot, cold, wet, or windy it might be!

Date:

Astronomy

Dec. 05, 2012 Rise Set
Actual Time 7:33 AM CST 4:36 PM CST
Civil Twilight 7:01 AM CST 5:08 PM CST
Nautical Twilight 6:24 AM CST 5:45 PM CST
Astronomical Twilight 5:50 AM CST 6:19 PM CST
Moon 11:37 PM CST (12/5) 11:48 AM CST (12/5)
Length of Visible Light 10h 07m
Length of Day
9h 02m
Waning Gibbous, 59% of the Moon is Illuminated
Dec 5
Waning Gibbous
Dec 6
Last Quarter
Dec 13
New
Dec 19
First Quarter
Dec 28
Full

Hourly Weather History & Observations

Time (CST) Temp. Windchill Dew Point Humidity Pressure Visibility Wind Dir Wind Speed Gust Speed Precip Events Conditions
12:13 AM 17.6 °F - 10.4 °F 73% 30.39 in 10.0 mi Calm Calm - N/A   Clear
12:33 AM 19.4 °F - 12.2 °F 74% 30.40 in 10.0 mi Calm Calm - N/A   Clear
12:54 AM 17.6 °F - 8.6 °F 68% 30.40 in 10.0 mi Calm Calm - N/A   Clear
1:13 AM 17.6 °F - 10.4 °F 73% 30.39 in 10.0 mi Calm Calm - N/A   Clear
1:54 AM 15.8 °F - 8.6 °F 73% 30.39 in 10.0 mi Calm Calm - N/A   Clear
2:13 AM 17.6 °F 12.3 °F 10.4 °F 73% 30.39 in 10.0 mi East 3.5 mph - N/A   Clear
2:33 AM 19.4 °F 11.5 °F 14.0 °F 80% 30.39 in 10.0 mi ENE 5.8 mph - N/A   Clear
2:54 AM 23.0 °F 14.7 °F 14.0 °F 68% 30.38 in 10.0 mi ENE 6.9 mph - N/A   Clear
3:13 AM 23.0 °F 14.7 °F 14.0 °F 68% 30.39 in 10.0 mi East 6.9 mph - N/A   Clear
3:33 AM 21.2 °F 13.6 °F 12.2 °F 68% 30.39 in 10.0 mi East 5.8 mph - N/A   Clear
3:54 AM 21.2 °F 14.9 °F 12.2 °F 68% 30.39 in 10.0 mi ESE 4.6 mph - N/A   Clear
4:13 AM 19.4 °F 11.5 °F 12.2 °F 74% 30.38 in 10.0 mi East 5.8 mph - N/A   Clear
4:34 AM 19.4 °F 11.5 °F 12.2 °F 74% 30.38 in 10.0 mi East 5.8 mph - N/A   Clear
4:53 AM 19.4 °F 10.4 °F 12.2 °F 74% 30.37 in 10.0 mi East 6.9 mph - N/A   Clear
5:13 AM 21.2 °F 12.6 °F 12.2 °F 68% 30.37 in 10.0 mi East 6.9 mph - N/A   Clear
5:33 AM 21.2 °F 11.7 °F 14.0 °F 74% 30.37 in 10.0 mi East 8.1 mph - N/A   Clear
5:53 AM 23.0 °F 12.4 °F 14.0 °F 68% 30.37 in 10.0 mi East 10.4 mph - N/A   Clear
6:13 AM 19.4 °F 8.6 °F 12.2 °F 74% 30.35 in 10.0 mi ESE 9.2 mph - N/A   Clear
6:33 AM 19.4 °F 9.5 °F 12.2 °F 74% 30.35 in 10.0 mi ESE 8.1 mph - N/A   Clear
6:54 AM 21.2 °F 10.1 °F 12.2 °F 68% 30.35 in 10.0 mi SE 10.4 mph - N/A   Clear
8:33 AM 24.8 °F 12.4 °F 14.0 °F 64% 30.32 in 10.0 mi ESE 15.0 mph - N/A   Clear
8:53 AM 24.8 °F 11.5 °F 14.0 °F 64% 30.32 in 10.0 mi ESE 17.3 mph - N/A   Clear
9:14 AM 26.6 °F 14.7 °F 14.0 °F 59% 30.32 in 10.0 mi ESE 15.0 mph - N/A   Clear
9:33 AM 28.4 °F 17.5 °F 14.0 °F 55% 30.31 in 10.0 mi ESE 13.8 mph 19.6 mph N/A   Clear
9:53 AM 30.2 °F 18.1 °F 15.8 °F 55% 30.30 in 10.0 mi ESE 18.4 mph - N/A   Clear
10:14 AM 32.0 °F 22.1 °F 15.8 °F 51% 30.29 in 10.0 mi SE 13.8 mph - N/A   Clear
10:34 AM 32.0 °F 21.6 °F 14.0 °F 48% 30.28 in 10.0 mi SE 15.0 mph 19.6 mph N/A   Clear
10:53 AM 33.8 °F 23.9 °F 15.8 °F 48% 30.27 in 10.0 mi SE 15.0 mph - N/A   Clear
11:14 AM 33.8 °F 24.3 °F 14.0 °F 44% 30.25 in 10.0 mi SE 13.8 mph 18.4 mph N/A   Clear
11:33 AM 35.6 °F 25.9 °F 14.0 °F 41% 30.23 in 10.0 mi SE 16.1 mph - N/A   Clear
11:53 AM 35.6 °F 24.8 °F 15.8 °F 44% 30.22 in 10.0 mi SE 19.6 mph 24.2 mph N/A   Clear
12:14 PM 39.2 °F 29.6 °F 17.6 °F 42% 30.22 in 10.0 mi SE 19.6 mph - N/A   Clear
12:33 PM 39.2 °F 30.8 °F 15.8 °F 39% 30.20 in 10.0 mi SE 15.0 mph 23.0 mph N/A   Clear
12:53 PM 39.2 °F 29.8 °F 15.8 °F 39% 30.17 in 10.0 mi SE 18.4 mph 24.2 mph N/A   Clear
1:14 PM 39.2 °F 30.2 °F 14.0 °F 36% 30.16 in 10.0 mi SE 17.3 mph 23.0 mph N/A   Clear
1:34 PM 39.2 °F 30.2 °F 15.8 °F 39% 30.15 in 10.0 mi SE 17.3 mph 23.0 mph N/A   Clear
1:53 PM 41.0 °F 31.9 °F 17.6 °F 39% 30.13 in 10.0 mi SE 19.6 mph 24.2 mph N/A   Clear
2:13 PM 41.0 °F 31.4 °F 17.6 °F 39% 30.11 in 10.0 mi SE 21.9 mph 28.8 mph N/A   Clear
2:34 PM 41.0 °F 31.6 °F 17.6 °F 39% 30.10 in 10.0 mi SE 20.7 mph 25.3 mph N/A   Clear
2:53 PM 41.0 °F 32.2 °F 17.6 °F 39% 30.09 in 10.0 mi SE 18.4 mph 26.5 mph N/A   Clear
3:13 PM 41.0 °F 32.5 °F 17.6 °F 39% 30.08 in 10.0 mi SE 17.3 mph 25.3 mph N/A   Clear
3:34 PM 41.0 °F 33.1 °F 17.6 °F 39% 30.08 in 10.0 mi SE 15.0 mph 23.0 mph N/A   Clear
3:54 PM 41.0 °F 32.8 °F 19.4 °F 42% 30.08 in 10.0 mi SE 16.1 mph 19.6 mph N/A   Clear
4:13 PM 41.0 °F 32.5 °F 19.4 °F 42% 30.06 in 10.0 mi SE 17.3 mph 25.3 mph N/A   Scattered Clouds
4:33 PM 39.2 °F 29.6 °F 17.6 °F 42% 30.05 in 10.0 mi SE 19.6 mph 26.5 mph N/A   Clear
4:54 PM 39.2 °F 29.0 °F 17.6 °F 42% 30.04 in 10.0 mi SE 21.9 mph 26.5 mph N/A   Clear
5:14 PM 39.2 °F 29.0 °F 19.4 °F 45% 30.03 in 10.0 mi SE 21.9 mph 27.6 mph N/A   Clear
5:33 PM 39.2 °F 29.6 °F 19.4 °F 45% 30.03 in 10.0 mi SE 19.6 mph 27.6 mph N/A   Scattered Clouds
5:53 PM 39.2 °F 29.0 °F 19.4 °F 45% 30.01 in 10.0 mi SE 21.9 mph 27.6 mph N/A   Mostly Cloudy
6:14 PM 39.2 °F 28.3 °F 19.4 °F 45% 29.99 in 10.0 mi SE 25.3 mph 31.1 mph N/A   Mostly Cloudy
6:33 PM 39.2 °F 28.0 °F 19.4 °F 45% 29.98 in 10.0 mi SE 26.5 mph 32.2 mph N/A   Mostly Cloudy
6:54 PM 39.2 °F 28.0 °F 19.4 °F 45% 29.98 in 10.0 mi SE 26.5 mph 39.1 mph N/A   Mostly Cloudy
7:13 PM 39.2 °F 29.0 °F 19.4 °F 45% 29.98 in 10.0 mi SSE 21.9 mph 34.5 mph N/A   Overcast
7:33 PM 39.2 °F 29.3 °F 21.2 °F 49% 29.98 in 10.0 mi SE 20.7 mph 31.1 mph N/A   Overcast
7:54 PM 39.2 °F 28.7 °F 21.2 °F 49% 29.97 in 10.0 mi SE 23.0 mph 32.2 mph N/A   Overcast
8:13 PM 39.2 °F 29.3 °F 21.2 °F 49% 29.96 in 10.0 mi SE 20.7 mph 28.8 mph N/A   Mostly Cloudy
8:33 PM 39.2 °F 29.8 °F 21.2 °F 49% 29.95 in 10.0 mi SE 18.4 mph 27.6 mph N/A   Mostly Cloudy
8:54 PM 39.2 °F 30.5 °F 21.2 °F 49% 29.96 in 10.0 mi SSE 16.1 mph 25.3 mph N/A   Mostly Cloudy
9:13 PM 39.2 °F 30.5 °F 21.2 °F 49% 29.95 in 10.0 mi SSE 16.1 mph 27.6 mph N/A   Mostly Cloudy
9:33 PM 39.2 °F 30.2 °F 23.0 °F 52% 29.94 in 10.0 mi SSE 17.3 mph 21.9 mph N/A   Mostly Cloudy
9:53 PM 41.0 °F 32.5 °F 24.8 °F 53% 29.94 in 10.0 mi SSE 17.3 mph 27.6 mph N/A   Overcast
10:14 PM 41.0 °F 33.1 °F 24.8 °F 53% 29.93 in 10.0 mi SSE 15.0 mph 25.3 mph N/A   Overcast
10:33 PM 41.0 °F 32.5 °F 24.8 °F 53% 29.93 in 10.0 mi SSE 17.3 mph 24.2 mph N/A   Overcast
10:53 PM 44.6 °F 35.7 °F 28.4 °F 53% 29.92 in 10.0 mi SSE 24.2 mph 28.8 mph N/A   Overcast
11:13 PM 44.6 °F 35.9 °F 28.4 °F 53% 29.91 in 10.0 mi SSE 23.0 mph 34.5 mph N/A   Overcast
11:33 PM 44.6 °F 35.7 °F 28.4 °F 53% 29.91 in 10.0 mi SSE 24.2 mph 32.2 mph N/A   Overcast
11:53 PM 44.6 °F 36.6 °F 28.4 °F 53% 29.90 in 10.0 mi SSE 19.6 mph 29.9 mph N/A   Overcast